Chicopee, MA

11:08 AM EST on December 15, 2017 (GMT -0500)
Westover Air Reserve Base / Metropolitan Airport

Weather History for KCEF - June, 2013

Change the Weather History Date:

Tuesday, June 18, 2013

  Actual Average Record
Temperature  
Mean Temperature 66 °F -  
Max Temperature 75 °F 76 °F 91 °F (2006)
Min Temperature 57 °F 56 °F 44 °F (2008)
Cooling Degree Days 1    
Growing Degree Days 16 (Base 50)    
Moisture  
Dew Point 60 °F    
Average Humidity 99    
Maximum Humidity 100    
Minimum Humidity 71    
Precipitation  
Precipitation 0.27 in - - ()
Sea Level Pressure  
Sea Level Pressure 29.91 in    
Wind  
Wind Speed 3 mph (NNE)    
Max Wind Speed 14 mph    
Max Gust Speed 23 mph    
Visibility 4 miles    
Events Fog , Rain , Thunderstorm    
Averages and records for this station are not official NWS values.
T = Trace of Precipitation, MM = Missing Value Source: NWS Daily Summary

Daily Weather History Graph

Daily Weather History Graph

Search for Another Location

Airport or City:

Trip Planner

Search our weather history database for the weather conditions in past years. The results will help you decide how hot, cold, wet, or windy it might be!

Date:

Astronomy

Jun. 18, 2013 Rise Set
Actual Time 5:13 AM EDT 8:29 PM EDT
Civil Twilight 4:38 AM EDT 9:03 PM EDT
Nautical Twilight 3:54 AM EDT 9:48 PM EDT
Astronomical Twilight 2:59 AM EDT 10:43 PM EDT
Moon 3:06 PM EDT (6/18) 1:25 AM EDT (6/18)
Length of Visible Light 16h 25m
Length of Day
15h 15m
Waxing Gibbous, 70% of the Moon is Illuminated
Jun 18
Waxing Gibbous
Jun 23
Full
Jun 30
Last Quarter
Jul 8
New
Jul 15
First Quarter

Hourly Weather History & Observations

Time (EDT) Temp. Dew Point Humidity Pressure Visibility Wind Dir Wind Speed Gust Speed Precip Events Conditions
12:01 AM 59.0 °F 59.0 °F 100% 29.92 in 1.2 mi South 2.3 mph - N/A   Clear
12:02 AM 59.0 °F 59.0 °F 100% 29.92 in 1.2 mi South 3.5 mph - N/A   Clear
12:05 AM 59.0 °F 59.0 °F 100% 29.91 in 1.2 mi SSE 2.3 mph - N/A   Partly Cloudy
12:07 AM 59.0 °F 59.0 °F 100% 29.91 in 1.0 mi SSE 2.3 mph - N/A   Partly Cloudy
12:09 AM 59.0 °F 59.0 °F 100% 29.91 in 0.8 mi South 3.5 mph - N/A   Scattered Clouds
12:10 AM 59.0 °F 59.0 °F 100% 29.91 in 0.8 mi South 3.5 mph - N/A   Scattered Clouds
12:11 AM 59.0 °F 59.0 °F 100% 29.91 in 0.8 mi South 3.5 mph - N/A   Scattered Clouds
12:12 AM 59.0 °F 59.0 °F 100% 29.91 in 0.8 mi South 3.5 mph - N/A   Scattered Clouds
12:17 AM 59.0 °F 59.0 °F 100% 29.91 in 0.8 mi SE 2.3 mph - N/A   Scattered Clouds
12:18 AM 59.0 °F 59.0 °F 100% 29.91 in 1.0 mi SE 2.3 mph - N/A   Scattered Clouds
12:19 AM 59.0 °F 59.0 °F 100% 29.91 in 1.2 mi SE 2.3 mph - N/A   Scattered Clouds
12:21 AM 59.0 °F 59.0 °F 100% 29.91 in 1.5 mi ESE 1.2 mph - N/A   Scattered Clouds
12:23 AM 59.0 °F 59.0 °F 100% 29.91 in 1.8 mi SE 2.3 mph - N/A   Partly Cloudy
12:25 AM 59.0 °F 59.0 °F 100% 29.91 in 2.0 mi SE 2.3 mph - N/A   Partly Cloudy
12:28 AM 59.0 °F 59.0 °F 100% 29.91 in 2.5 mi SSE 3.5 mph - N/A   Partly Cloudy
12:30 AM 59.0 °F 59.0 °F 100% 29.91 in 3.0 mi SSE 4.6 mph - N/A   Partly Cloudy
12:58 AM 59.7 °F 59.4 °F 99% 29.93 in 10.0 mi SSE 2.3 mph - N/A   Clear
1:09 AM 60.8 °F 59.0 °F 94% 29.91 in 10.0 mi SSE 3.5 mph - N/A   Partly Cloudy
1:41 AM 60.8 °F 59.0 °F 94% 29.92 in 10.0 mi South 2.3 mph - N/A Rain Light Rain
1:45 AM 59.0 °F 59.0 °F 100% 29.92 in 10.0 mi South 3.5 mph - N/A Rain Light Rain
1:58 AM 60.1 °F 59.9 °F 99% 29.94 in 10.0 mi ESE 2.3 mph - 0.00 in   Light Drizzle
2:20 AM 60.8 °F 60.8 °F 100% 29.91 in 10.0 mi Calm Calm - N/A   Mostly Cloudy
2:58 AM 61.3 °F 61.2 °F 99% 29.93 in 10.0 mi SSE 3.5 mph - 0.00 in   Mostly Cloudy
3:04 AM 60.8 °F 60.8 °F 100% 29.90 in 10.0 mi East 2.3 mph - N/A   Light Drizzle
3:13 AM 60.8 °F 60.8 °F 100% 29.90 in 10.0 mi ENE 3.5 mph - N/A   Mostly Cloudy
3:44 AM 59.0 °F 59.0 °F 100% 29.89 in 2.5 mi NNE 3.5 mph - N/A   Scattered Clouds
3:46 AM 59.0 °F 59.0 °F 100% 29.89 in 2.0 mi NNE 3.5 mph - N/A   Scattered Clouds
3:47 AM 59.0 °F 59.0 °F 100% 29.89 in 1.8 mi NNE 3.5 mph - N/A   Partly Cloudy
3:48 AM 59.0 °F 59.0 °F 100% 29.88 in 1.5 mi NNE 3.5 mph - N/A   Partly Cloudy
3:49 AM 59.0 °F 59.0 °F 100% 29.88 in 1.2 mi NNE 3.5 mph - N/A   Partly Cloudy
3:51 AM 59.0 °F 59.0 °F 100% 29.88 in 1.0 mi NNE 4.6 mph - N/A   Partly Cloudy
3:53 AM 59.0 °F 59.0 °F 100% 29.88 in 1.0 mi NNE 4.6 mph - N/A   Partly Cloudy
3:54 AM 59.0 °F 59.0 °F 100% 29.89 in 1.0 mi NNE 4.6 mph - N/A   Partly Cloudy
3:55 AM 59.0 °F 59.0 °F 100% 29.89 in 0.8 mi NNE 4.6 mph - N/A   Partly Cloudy
3:57 AM 59.0 °F 57.2 °F 94% 29.88 in 0.5 mi NNE 3.5 mph - N/A Fog Fog
3:58 AM 59.0 °F 57.2 °F 94% 29.91 in 0.5 mi NNE 3.5 mph - 0.00 in Fog Fog
4:01 AM 57.2 °F 57.2 °F 100% 29.88 in 0.5 mi North 4.6 mph - N/A Fog Fog
4:03 AM 57.2 °F 57.2 °F 100% 29.89 in 0.5 mi North 4.6 mph - N/A Fog Fog
4:06 AM 57.2 °F 57.2 °F 100% 29.89 in 0.5 mi North 3.5 mph - N/A Fog Fog
4:08 AM 57.2 °F 57.2 °F 100% 29.89 in 0.5 mi NNE 2.3 mph - N/A Fog Fog
4:12 AM 57.2 °F 57.2 °F 100% 29.89 in 0.8 mi NNE 1.2 mph - N/A   Clear
4:17 AM 59.0 °F 59.0 °F 100% 29.89 in 0.5 mi NE 2.3 mph - N/A Fog Fog
4:22 AM 59.0 °F 59.0 °F 100% 29.89 in 0.5 mi ENE 1.2 mph - N/A Fog Fog
4:33 AM 57.2 °F 57.2 °F 100% 29.88 in 0.5 mi ENE 2.3 mph - N/A Fog Fog
4:34 AM 57.2 °F 57.2 °F 100% 29.88 in 0.5 mi ENE 2.3 mph - N/A Fog Fog
4:38 AM 57.2 °F 57.2 °F 100% 29.88 in 0.5 mi Calm Calm - N/A Fog Fog
4:39 AM 59.0 °F 57.2 °F 94% 29.88 in 0.2 mi Calm Calm - N/A Fog Fog
4:55 AM 57.2 °F 57.2 °F 100% 29.89 in 0.2 mi WSW 1.2 mph - N/A Fog Fog
4:56 AM 57.2 °F 57.2 °F 100% 29.89 in 0.2 mi Calm Calm - N/A Fog Fog
4:57 AM 57.2 °F 57.2 °F 100% 29.89 in 0.2 mi Calm Calm - N/A Fog Fog
4:58 AM 57.2 °F 57.2 °F 100% 29.91 in 0.2 mi Calm Calm - 0.01 in Fog Fog
4:59 AM 57.2 °F 57.2 °F 100% 29.89 in 0.2 mi Calm Calm - N/A Fog Fog
5:08 AM 57.2 °F 57.2 °F 100% 29.89 in 0.2 mi Calm Calm - N/A Fog Fog
5:09 AM 57.2 °F 57.2 °F 100% 29.89 in 0.2 mi West 1.2 mph - N/A Fog Fog
5:11 AM 57.2 °F 57.2 °F 100% 29.89 in 0.2 mi Calm Calm - N/A Fog Fog
5:17 AM 57.2 °F 57.2 °F 100% 29.89 in 0.2 mi Calm Calm - N/A Fog Fog
5:18 AM 57.2 °F 57.2 °F 100% 29.89 in 0.2 mi Calm Calm - N/A Fog Fog
5:20 AM 57.2 °F 57.2 °F 100% 29.89 in 0.2 mi NNW 2.3 mph - N/A Fog Fog
5:27 AM 57.2 °F 57.2 °F 100% 29.89 in 0.2 mi North 2.3 mph - N/A Fog Fog
5:35 AM 57.2 °F 55.4 °F 94% 29.90 in 0.2 mi NNW 1.2 mph - N/A Fog Fog
5:57 AM 57.2 °F 57.2 °F 100% 29.90 in 0.2 mi ENE 2.3 mph - N/A Fog Fog
5:58 AM 57.2 °F 57.2 °F 100% 29.92 in 0.2 mi ENE 2.3 mph - N/A Fog Fog
6:05 AM 57.2 °F 57.2 °F 100% 29.90 in 0.2 mi NE 2.3 mph - N/A Fog Fog
6:09 AM 57.2 °F 57.2 °F 100% 29.90 in 0.2 mi NE 2.3 mph - N/A Fog Fog
6:21 AM 57.2 °F 57.2 °F 100% 29.90 in 0.2 mi Calm Calm - N/A Fog Fog
6:29 AM 59.0 °F 57.2 °F 94% 29.91 in 0.2 mi Calm Calm - N/A Fog Fog
6:47 AM 59.0 °F 59.0 °F 100% 29.92 in 0.2 mi North 2.3 mph - N/A Fog Fog
6:49 AM 59.0 °F 59.0 °F 100% 29.92 in 0.2 mi North 2.3 mph - N/A Fog Fog
6:58 AM 59.0 °F 58.6 °F 99% 29.94 in 0.2 mi North 2.3 mph - N/A Fog Fog
7:02 AM 59.0 °F 59.0 °F 100% 29.92 in 0.2 mi North 2.3 mph - N/A Fog Fog
7:04 AM 59.0 °F 59.0 °F 100% 29.92 in 0.2 mi North 2.3 mph - N/A Fog Fog
7:06 AM 59.0 °F 59.0 °F 100% 29.92 in 0.2 mi North 3.5 mph - N/A Fog Fog
7:07 AM 59.0 °F 59.0 °F 100% 29.92 in 0.2 mi North 3.5 mph - N/A Fog Fog
7:08 AM 59.0 °F 59.0 °F 100% 29.92 in 0.5 mi North 3.5 mph - N/A Fog Fog
7:09 AM 59.0 °F 59.0 °F 100% 29.92 in 0.5 mi North 3.5 mph - N/A Fog Fog
7:10 AM 59.0 °F 59.0 °F 100% 29.92 in 0.5 mi North 3.5 mph - N/A Fog Fog
7:11 AM 59.0 °F 59.0 °F 100% 29.92 in 0.8 mi North 2.3 mph - N/A   Mist
7:12 AM 59.0 °F 59.0 °F 100% 29.92 in 1.0 mi North 2.3 mph - N/A   Mist
7:13 AM 59.0 °F 59.0 °F 100% 29.92 in 1.2 mi North 3.5 mph - N/A   Overcast
7:14 AM 59.0 °F 59.0 °F 100% 29.92 in 1.8 mi North 3.5 mph - N/A   Overcast
7:15 AM 59.0 °F 59.0 °F 100% 29.92 in 2.0 mi North 2.3 mph - N/A   Overcast
7:16 AM 59.0 °F 59.0 °F 100% 29.92 in 2.5 mi North 3.5 mph - N/A   Overcast
7:17 AM 59.0 °F 59.0 °F 100% 29.92 in 2.0 mi North 3.5 mph - N/A   Overcast
7:19 AM 59.0 °F 59.0 °F 100% 29.92 in 1.8 mi NNW 3.5 mph - N/A   Overcast
7:24 AM 59.0 °F 59.0 °F 100% 29.93 in 1.5 mi Variable 2.3 mph - N/A   Overcast
7:26 AM 59.0 °F 59.0 °F 100% 29.93 in 1.8 mi Calm Calm - N/A   Overcast
7:27 AM 59.0 °F 59.0 °F 100% 29.93 in 2.0 mi North 1.2 mph - N/A   Overcast
7:28 AM 59.0 °F 59.0 °F 100% 29.93 in 2.5 mi North 2.3 mph - N/A   Overcast
7:30 AM 59.0 °F 59.0 °F 100% 29.93 in 3.0 mi NNE 2.3 mph - N/A   Overcast
7:33 AM 59.0 °F 59.0 °F 100% 29.93 in 2.5 mi NNE 2.3 mph - N/A   Overcast
7:34 AM 59.0 °F 59.0 °F 100% 29.93 in 2.0 mi NNE 1.2 mph - N/A   Overcast
7:35 AM 59.0 °F 59.0 °F 100% 29.92 in 0.8 mi North 1.2 mph - N/A   Overcast
7:39 AM 60.8 °F 59.0 °F 94% 29.92 in 0.5 mi Calm Calm - N/A Fog Fog
7:55 AM 59.4 °F 58.6 °F 97% 29.95 in 0.5 mi Calm Calm - N/A Fog Fog
8:27 AM 60.8 °F 60.8 °F 100% 29.93 in 1.2 mi Calm Calm - N/A   Overcast
8:45 AM 62.6 °F 62.6 °F 100% 29.94 in 1.5 mi Calm Calm - N/A   Overcast
8:58 AM 62.6 °F 62.6 °F 100% 29.96 in 3.0 mi Calm Calm - N/A   Overcast
9:17 AM 62.6 °F 62.6 °F 100% 29.93 in 6.0 mi North 6.9 mph - N/A   Overcast
9:38 AM 62.6 °F 62.6 °F 100% 29.94 in 10.0 mi North 5.8 mph - N/A   Overcast
9:58 AM 64.4 °F 64.4 °F 100% 29.95 in 10.0 mi NNE 3.5 mph - N/A   Overcast
10:12 AM 64.4 °F 64.4 °F 100% 29.93 in 10.0 mi Variable 3.5 mph - N/A   Mostly Cloudy
10:42 AM 66.2 °F 66.2 °F 100% 29.93 in 10.0 mi North 4.6 mph - N/A Rain Light Rain
10:47 AM 66.2 °F 66.2 °F 100% 29.92 in 10.0 mi NE 3.5 mph - N/A   Mostly Cloudy
10:54 AM 66.2 °F 66.2 °F 100% 29.92 in 10.0 mi Variable 2.3 mph - N/A   Light Drizzle
10:58 AM 66.0 °F 66.0 °F 100% 29.94 in 10.0 mi North 1.2 mph - 0.00 in   Light Drizzle
11:04 AM 66.2 °F 66.2 °F 100% 29.92 in 10.0 mi Variable 2.3 mph - N/A   Mostly Cloudy
11:05 AM 66.2 °F 66.2 °F 100% 29.92 in 10.0 mi Variable 2.3 mph - N/A   Light Drizzle
11:16 AM 68.0 °F 68.0 °F 100% 29.92 in 10.0 mi North 4.6 mph - N/A   Mostly Cloudy
11:23 AM 68.0 °F 68.0 °F 100% 29.92 in 10.0 mi NE 3.5 mph - N/A   Light Drizzle
11:33 AM 68.0 °F 68.0 °F 100% 29.91 in 10.0 mi Variable 1.2 mph - N/A   Mostly Cloudy
11:43 AM 68.0 °F 68.0 °F 100% 29.91 in 10.0 mi Variable 1.2 mph - N/A   Light Drizzle
11:58 AM 68.9 °F 68.9 °F 100% 29.92 in 10.0 mi Variable 1.2 mph - 0.00 in   Light Drizzle
11:59 AM 69.8 °F 69.8 °F 100% 29.90 in 10.0 mi NNW 2.3 mph - N/A   Mostly Cloudy
12:58 PM 75.7 °F 65.8 °F 71% 29.91 in 10.0 mi NNW 8.1 mph - 0.00 in   Mostly Cloudy
1:58 PM 69.3 °F 63.5 °F 82% 29.90 in 10.0 mi NNE 13.8 mph 23.0 mph N/A   Mostly Cloudy
2:06 PM 68.0 °F 62.6 °F 83% 29.88 in 10.0 mi NNE 12.7 mph 23.0 mph N/A Rain , Thunderstorm Light Thunderstorms and Rain
2:58 PM 64.4 °F 64.0 °F 99% 29.89 in 3.0 mi NNE 11.5 mph - 0.06 in Rain , Thunderstorm Light Thunderstorms and Rain
3:08 PM 64.4 °F 64.4 °F 100% 29.89 in 6.0 mi NNE 6.9 mph - N/A Rain , Thunderstorm Light Rain Showers
3:41 PM 66.2 °F 66.2 °F 100% 29.89 in 6.0 mi NNE 11.5 mph - N/A   Overcast
3:53 PM 66.2 °F 66.2 °F 100% 29.89 in 7.0 mi NNE 9.2 mph - N/A   Overcast
3:58 PM 66.0 °F 65.5 °F 98% 29.91 in 7.0 mi North 8.1 mph - 0.00 in   Overcast
4:11 PM 66.2 °F 66.2 °F 100% 29.90 in 10.0 mi NNE 6.9 mph - N/A   Overcast
4:23 PM 66.2 °F 66.2 °F 100% 29.90 in 10.0 mi NNE 6.9 mph - N/A   Mostly Cloudy
4:47 PM 66.2 °F 66.2 °F 100% 29.90 in 10.0 mi NNE 8.1 mph - N/A   Overcast
4:58 PM 66.2 °F 65.3 °F 97% 29.92 in 10.0 mi NNE 9.2 mph - N/A   Overcast
5:58 PM 64.0 °F 61.9 °F 93% 29.93 in 10.0 mi NE 5.8 mph - N/A   Overcast
6:58 PM 63.3 °F 60.8 °F 91% 29.93 in 10.0 mi NNE 6.9 mph - N/A   Overcast
7:22 PM 62.6 °F 60.8 °F 94% 29.92 in 10.0 mi NW 5.8 mph - N/A Rain Light Rain
7:58 PM 62.2 °F 61.7 °F 98% 29.93 in 8.0 mi NE 8.1 mph - 0.00 in Rain Light Rain
8:58 PM 60.4 °F 59.9 °F 98% 29.94 in 10.0 mi North 4.6 mph - 0.01 in   Overcast
9:58 PM 60.3 °F 59.7 °F 98% 29.96 in 9.0 mi North 2.3 mph - 0.00 in Rain Light Rain
10:58 PM 59.0 °F 58.6 °F 99% 29.95 in 4.0 mi NE 5.8 mph - 0.11 in Rain Rain
11:00 PM 59.0 °F 59.0 °F 100% 29.93 in 4.0 mi NNE 5.8 mph - N/A Rain Light Rain
11:11 PM 57.2 °F 57.2 °F 100% 29.94 in 7.0 mi NE 6.9 mph - N/A Rain Light Rain
11:16 PM 57.2 °F 55.4 °F 94% 29.94 in 8.0 mi NE 5.8 mph - N/A Rain Light Rain
11:58 PM 57.2 °F 56.7 °F 98% 29.96 in 9.0 mi NE 3.5 mph - 0.08 in Rain Light Rain